CZ-6A DEB, 54608

Orbit data source: Space-Track

CZ-6A DEB, 54608 is space debris in SSO originally from a launch on Fri, 11 Nov 2022 UTC launched from the Taiyaun Space Center, China (TSC). Debris objects in space refer to the collection of defunct objects orbiting the Earth. Examples of debris include non-operational satellites, rocket bodies, and fragments generated from explosions, collisions, or faulty payload assembly.

Loading next visibility...
Identifier
54608, 2022-151NJ
Orbit
SSO
Country
Flag of CNCN / PRC
Related business
Manufacturer
SAST
Mission
Spacecraft
Bus & Motor
Unknown
Mass
Unknown
Launch date (UTC)
2022-11-11 (3 years ago)
Launch vehicle
Unknown
Launch site
Taiyaun Space Center, China (TSC)
Object type
Payload
Rocket body
Debris
Shape & HBR
Unknown shape, 0.1 m
Radar Cross Section
Small (<0.1 m²)

Expand to show TLE details & history
Last TLE update: 16 hours ago

TLE from 16 hours ago
0 CZ-6A DEB
1 54608U 22151NJ  25351.41759682  .00000737  00000-0  45646-3 0  9997
2 54608  98.8402 341.1885 0064515 143.4106 217.1496 14.07219031158277
Epoch: 2025-12-17T10:01Z
TLE epoch observation values (Epoch: 2025-12-17T10:01:20.365Z)
Latitude
0.00004°
Longitude
104.56589°
Altitude
909.179 km
Speed
7.378 km/s
True Right ascension
22h 44m 45s
True Declination
0° 00' 00"
Sunlit
Object was in daylight at epoch
Visualization orbit readout
Latitude
Unknown
Longitude
Unknown
Altitude
Unknown
Speed
Unknown
Apparent Right ascension
Unknown
Apparent Declination
Unknown
Sunlit
N/A
Visualization observer readout
Local Sidereal Time
00:48:06
Azimuth
Unknown
Elevation
Unknown
Doppler factor
Unknown
Orbital elements
Apogee altitude
912.822 km
Perigee altitude
819.35 km
Semi-major axis
7,244.223 km
Eccentricity
0.00645
Inclination
98.8402°
RAAN
341.1885°
Arg. of periapsis
143.4106°
True anomaly
216.706°
Mean anomaly
217.1496°
Eccentric anomaly
216.92752°
Mean motion
3.5201 °/min
Orbital period
102.27 mins
BSTAR
0.00045646
Loading maneuver chart data...
Computing Atmospheric mass density...
Loading historical data...
Loading historical data...
Loading historical data...
Loading historical data...
Loading historical data...
Loading historical data...
Loading historical data...

Documentation

Showing up to 5 results
|